Regional Weather Roundup
Issued by NWS

Home | Current Version | Previous Version | Text Only | Print | Product List | Glossary Off
Versions: 1 2 3 4 5 6 7 8 9 10 11 12 13 14 15 16 17 18 19 20 21 22 23 24 25 26 27 28 29 30 31 32 33 34 35 36 37 38 39 40 41 42 43 44 45 46 47 48 49 50

233
ASUS43 KDMX 171106
RWRIA

WEATHER ROUNDUP FOR IOWA
NATIONAL WEATHER SERVICE DES MOINES IA
500 AM CST WED JAN 17 2018

NOTE: "FAIR" INDICATES FEW OR NO CLOUDS BELOW 12,000 FEET WITH NO
SIGNIFICANT WEATHER AND/OR OBSTRUCTIONS TO VISIBILITY.

* - THESE STATIONS ARE NOT NWS STATIONS...THUS NOT UNDER NWS
QUALITY CONTROL.  THEY ALSO DO NOT REPORT WEATHER SUCH
AS PRECIPITATION OR FOG.

IAZ001>003-012>014-020>022-031>034-043>046-171200-
   NORTHWEST IOWA

CITY           SKY/WX    TMP DP  RH WIND       PRES   REMARKS
CARROLL *      CLOUDY     5   0  78 SW9       30.52R WCI  -9
CHEROKEE *     CLOUDY     2  -1  89 S10       30.46F WCI -14
DENISON *      CLOUDY     1  -2  85 SW6       30.53S WCI -10
LE MARS *      CLOUDY     1  -2  85 S7        30.47F WCI -11
ORANGE CITY *  CLOUDY     3   1  92 SW10      30.42F WCI -12
SHELDON *      CLOUDY     3   0  85 SW12G18   30.41F WCI -13
SIOUX CITY     CLOUDY     2  -3  80 SE5       30.49F WCI  -8
SPENCER        CLOUDY     3  -3  76 SW8       30.44F WCI -10
STORM LAKE *   CLOUDY     3   0  85 SW12      30.45F WCI -13
$$

IAZ055>058-069>071-079>083-090>094-171200-
   SOUTHWEST IOWA

CITY           SKY/WX    TMP DP  RH WIND       PRES   REMARKS
ATLANTIC *     CLOUDY    -4  -8  84 S6        30.57F WCI -16
AUDUBON *      CLOUDY     1  -2  85 S8        30.51F WCI -12
CLARINDA *     CLOUDY    -6  -9  84 CALM      30.63F
COUNCIL BLFS * CLOUDY     3   3 100 S6        30.55F WCI  -8
CRESTON *      CLOUDY    -2  -6  84 SW7       30.58S WCI -16
HARLAN  *      CLOUDY    -4  -6  92 S9        30.57F WCI -20
LAMONI         CLOUDY     1  -3  83 SW10      30.58F WCI -15
RED OAK *      CLOUDY    -4  -8  84 CALM      30.60F
SHENANDOAH *   CLOUDY    -2  -6  84 CALM      30.61F
$$

IAZ047>049-059>061-072>074-084-171200-
   CENTRAL IOWA

CITY           SKY/WX    TMP DP  RH WIND       PRES   REMARKS
AMES           CLOUDY    -3  -6  87 CALM      30.57R
ANKENY *       CLOUDY    -8 -11  84 CALM      30.58F
BOONE *        CLOUDY    -2  -6  84 SW7       30.53R WCI -16
CHARITON *     CLOUDY    -2  -6  84 W6        30.58F WCI -14
DES MOINES     CLOUDY    -2  -6  83 S6        30.56F WCI -14
GRINNELL*      CLOUDY    -4  -7  85 SW6       30.57S WCI -16
KNOXVILLE *    CLOUDY    -2  -9  71 SW6       30.56F WCI -14
MARSHALLTOWN   CLOUDY    -4  -7  87 W3        30.55F
NEWTON *       CLOUDY    -4  -8  84 SW7       30.56F WCI -18
PELLA *        CLOUDY    -2  -6  84 SW5       30.59F WCI -12
PERRY *          N/A     -4  -8  83 CALM      30.55R
$$

IAZ004>006-015-016-023>025-035-036-171200-
   NORTH CENTRAL IOWA

CITY           SKY/WX    TMP DP  RH WIND       PRES   REMARKS
ALGONA *       CLOUDY     0   0 100 SW12      30.45F WCI -18
CLARION *      CLOUDY    -4  -6  92 S7        30.51S WCI -18
ESTHERVILLE    CLOUDY     4  -1  80 SW14      30.41F WCI -14
FORT DODGE *   CLOUDY    -3  -7  82 S6        30.50F WCI -15
MASON CITY     CLOUDY     0  -5  79 SW10      30.48F WCI -16
FOREST CITY *    N/A      0  -6  78 SW8       30.46F WCI -15
WEBSTER CITY * CLOUDY    -4  -9  77 SW12      30.50F WCI -22
IOWA FALLS *     N/A      0  -4  83 SW9       30.52F WCI -15
$$

IAZ007>011-017>019-026>030-037>042-050>054-066-171200-
   NORTHEAST IOWA

CITY           SKY/WX    TMP DP  RH WIND       PRES   REMARKS
CEDAR RAPIDS     N/A     -3  -9  75 SW3       30.56S
CHARLES CITY *   N/A     -4  -8  84 SW8       30.50F WCI -19
CLINTON *        N/A     -5  -8  87 W8        30.58F WCI -20
DECORAH *        N/A      0  -4  85 VRB5      30.46F WCI -10
DUBUQUE          N/A     -3  -8  79 W6        30.51F WCI -15
MONTICELLO *     N/A     -4  -9  77 CALM      30.56S
OELWEIN *        N/A     -6  -6 100 SW5       30.53S WCI -17
WATERLOO         N/A     -3  -7  82 S5        30.55F WCI -13
$$

IAZ064-065-067-068-078-171200-
   EAST CENTRAL IOWA

CITY           SKY/WX    TMP DP  RH WIND       PRES   REMARKS
DAVENPORT        N/A     -1  -6  79 W7        30.59F WCI -14
IOWA CITY        N/A     -1  -8  72 CALM      30.62F
MT. PLEASANT * CLOUDY    -4  -8  84 W7        30.62S WCI -18
MUSCATINE *      N/A      0  -6  78 CALM      30.63F
QUAD CITIES      N/A     -1  -5  82 W5        30.60S WCI -11
$$

IAZ062-063-075>077-085>089-095>099-171200-
   SOUTHEAST IOWA

CITY           SKY/WX    TMP DP  RH WIND       PRES   REMARKS
BURLINGTON     PTCLDY    -4  -9  79 SW3       30.62S
FAIRFIELD *    CLOUDY    -2  -9  71 SW6       30.60F WCI -14
FORT MADISON * CLEAR     -2  -6  84 SW6       30.63S WCI -14
KEOKUK *       CLOUDY    -2  -6  84 SW6       30.64R WCI -14
OSKALOOSA *      N/A     -3  -6  85 SW5       30.60F WCI -13
OTTUMWA        CLOUDY    -2  -7  79 SW3       30.59F
WASHINGTON *   CLOUDY    -2  -6  84 W5        30.61F WCI -12
$$

ABBREVIATIONS USED IN REMARKS
   TC - TEMPERATURES IN CELSIUS
  WCI - WIND CHILL INDEX
   HX - HEAT INDEX
  VSB - VISIBILITY
$$





USA.gov is the U.S. government's official web portal to all federal, state and local government web resources and services.